When you browse on this site, cookies collect data to enhance your experience and personalize the content and advertising you see.
Visit our Privacy Policy to learn more. By continuing to use the site, you agree to this use of cookies and data.
  • In Hungary
  • List of Countries
  • For 7 days
  • Water Temperature
  • Weather Map
  • News
  • Weather Widgets
  • user-avatar
    Login

    Hourly Weather Ilyuhino

    Today, 19 January, Sunday

    Time Temperature Precipitation Wind Pressure Humidity
    00:00 -5°C° 0 mm 3 mps 758 mmHg 96%
    01:00 -5°C° 0 mm 3 mps 758 mmHg 95%
    02:00 -4°C° 0 mm 3 mps 759 mmHg 95%
    03:00 -4°C° 0 mm 4 mps 759 mmHg 94%
    04:00 -4°C° 0 mm 4 mps 758 mmHg 94%
    05:00 -5°C° 0 mm 3 mps 758 mmHg 93%
    06:00 -5°C° 0 mm 3 mps 758 mmHg 93%
    07:00 -5°C° 0 mm 3 mps 758 mmHg 92%
    08:00 -5°C° 0 mm 3 mps 758 mmHg 92%
    09:00 -5°C° 0 mm 3 mps 758 mmHg 91%
    10:00 -5°C° 0 mm 3 mps 758 mmHg 90%
    11:00 -4°C° 0 mm 3 mps 758 mmHg 89%
    12:00 -4°C° 0 mm 3 mps 758 mmHg 87%
    13:00 -4°C° 0 mm 3 mps 759 mmHg 88%
    14:00 -4°C° 0 mm 3 mps 759 mmHg 89%
    15:00 -4°C° 0 mm 3 mps 759 mmHg 91%
    16:00 -4°C° 0 mm 3 mps 759 mmHg 92%
    17:00 -3°C° 0 mm 2 mps 759 mmHg 93%
    18:00 -4°C° 0 mm 2 mps 759 mmHg 94%
    19:00 -4°C° 0 mm 2 mps 759 mmHg 94%
    20:00 -4°C° 0 mm 2 mps 759 mmHg 95%
    21:00 -5°C° 0 mm 2 mps 759 mmHg 95%
    22:00 -6°C° 0 mm 3 mps 759 mmHg 95%
    23:00 -6°C° 0 mm 3 mps 759 mmHg 95%

    Tomorrow, 20 January, Monday

    Time Temperature Precipitation Wind Pressure Humidity
    00:00 -6°C° 0 mm 3 mps 759 mmHg 95%
    01:00 -6°C° 0 mm 3 mps 759 mmHg 95%
    02:00 -6°C° 0 mm 3 mps 759 mmHg 95%
    03:00 -6°C° 0 mm 3 mps 759 mmHg 96%
    04:00 -5°C° 0 mm 3 mps 759 mmHg 95%
    05:00 -4°C° 0 mm 3 mps 758 mmHg 95%
    06:00 -4°C° 0 mm 4 mps 758 mmHg 95%
    07:00 -3°C° 0 mm 4 mps 758 mmHg 94%
    08:00 -3°C° 0 mm 4 mps 758 mmHg 93%
    09:00 -3°C° 0 mm 4 mps 758 mmHg 92%
    10:00 -3°C° 0 mm 4 mps 758 mmHg 91%
    11:00 -2°C° 0 mm 4 mps 758 mmHg 90%
    12:00 -2°C° 0 mm 5 mps 757 mmHg 90%
    13:00 -2°C° 0 mm 5 mps 757 mmHg 90%
    14:00 -2°C° 0 mm 5 mps 757 mmHg 90%
    15:00 -1°C° 0 mm 4 mps 757 mmHg 90%
    16:00 -1°C° 0 mm 4 mps 757 mmHg 91%
    17:00 -1°C° 0 mm 4 mps 756 mmHg 93%
    18:00 -2°C° 0 mm 4 mps 756 mmHg 95%
    19:00 -2°C° 0.1 mm 4 mps 756 mmHg 96%
    20:00 -2°C° 0.1 mm 4 mps 755 mmHg 96%
    21:00 -2°C° 0.1 mm 4 mps 755 mmHg 97%
    22:00 -2°C° 0.1 mm 4 mps 755 mmHg 97%
    23:00 -2°C° 0.1 mm 4 mps 755 mmHg 97%

    Day after tomorrow, 21 January, Tuesday

    Time Temperature Precipitation Wind Pressure Humidity
    00:00 -2°C° 0.1 mm 4 mps 754 mmHg 96%
    01:00 -2°C° 0.1 mm 4 mps 754 mmHg 96%
    02:00 -2°C° 0.1 mm 4 mps 753 mmHg 95%
    03:00 -2°C° 0.1 mm 4 mps 753 mmHg 95%
    04:00 -2°C° 0.4 mm 4 mps 752 mmHg 95%
    05:00 -2°C° 0.4 mm 4 mps 752 mmHg 96%
    06:00 -2°C° 0.4 mm 4 mps 751 mmHg 96%
    07:00 -2°C° 0.2 mm 4 mps 751 mmHg 96%
    08:00 -3°C° 0.2 mm 4 mps 750 mmHg 95%
    09:00 -3°C° 0.2 mm 4 mps 750 mmHg 94%
    10:00 -4°C° 0.2 mm 5 mps 749 mmHg 94%
    11:00 -4°C° 0.2 mm 5 mps 748 mmHg 93%
    12:00 -4°C° 0.2 mm 5 mps 747 mmHg 93%
    13:00 -4°C° 0.7 mm 5 mps 747 mmHg 94%
    14:00 -3°C° 0.7 mm 6 mps 746 mmHg 95%
    15:00 -3°C° 0.7 mm 6 mps 746 mmHg 96%
    16:00 -2°C° 0.1 mm 6 mps 745 mmHg 96%
    17:00 -2°C° 0.1 mm 6 mps 744 mmHg 96%
    18:00 -1°C° 0.1 mm 6 mps 744 mmHg 97%
    19:00 -1°C° 0 mm 6 mps 743 mmHg 96%
    20:00 -1°C° 0 mm 6 mps 743 mmHg 96%
    21:00 0°C° 0 mm 5 mps 743 mmHg 95%
    22:00 0°C° 0.1 mm 5 mps 742 mmHg 96%
    23:00 0°C° 0.1 mm 5 mps 741 mmHg 96%

    22 January, Wednesday

    Time Temperature Precipitation Wind Pressure Humidity
    00:00 0°C° 0.1 mm 5 mps 741 mmHg 97%
    01:00 -1°C° 0.7 mm 6 mps 740 mmHg 97%
    02:00 +1°C° 0.7 mm 6 mps 739 mmHg 97%
    03:00 +1°C° 0.7 mm 6 mps 738 mmHg 96%
    04:00 0°C° 0.4 mm 7 mps 738 mmHg 96%
    05:00 0°C° 0.4 mm 7 mps 737 mmHg 96%
    06:00 0°C° 0.4 mm 7 mps 737 mmHg 96%
    07:00 -1°C° 0.1 mm 6 mps 737 mmHg 92%
    08:00 -1°C° 0.1 mm 5 mps 738 mmHg 89%
    09:00 -2°C° 0.1 mm 5 mps 738 mmHg 85%
    10:00 -2°C° 0 mm 5 mps 739 mmHg 83%
    11:00 -3°C° 0 mm 6 mps 739 mmHg 80%
    12:00 -3°C° 0 mm 6 mps 739 mmHg 77%
    13:00 -3°C° 0 mm 6 mps 739 mmHg 77%
    14:00 -2°C° 0 mm 5 mps 739 mmHg 77%
    15:00 -2°C° 0 mm 5 mps 739 mmHg 77%
    16:00 -3°C° 0 mm 4 mps 739 mmHg 79%
    17:00 -3°C° 0 mm 4 mps 739 mmHg 82%
    18:00 -4°C° 0 mm 3 mps 739 mmHg 84%
    19:00 -4°C° 0 mm 3 mps 739 mmHg 85%
    20:00 -4°C° 0 mm 3 mps 739 mmHg 86%
    21:00 -4°C° 0 mm 4 mps 739 mmHg 87%
    22:00 -4°C° 0 mm 3 mps 739 mmHg 88%
    23:00 -4°C° 0 mm 3 mps 739 mmHg 89%

    23 January, Thursday

    Time Temperature Precipitation Wind Pressure Humidity
    00:00 -5°C° 0 mm 3 mps 739 mmHg 90%
    01:00 -5°C° 0 mm 3 mps 739 mmHg 91%
    02:00 -5°C° 0 mm 3 mps 739 mmHg 91%
    03:00 -5°C° 0 mm 3 mps 739 mmHg 92%
    04:00 -5°C° 0 mm 3 mps 739 mmHg 92%
    05:00 -5°C° 0 mm 4 mps 740 mmHg 92%
    06:00 -5°C° 0 mm 4 mps 740 mmHg 91%
    07:00 -5°C° 0.1 mm 4 mps 740 mmHg 90%
    08:00 -5°C° 0.1 mm 4 mps 741 mmHg 88%
    09:00 -7°C° 0.1 mm 5 mps 741 mmHg 86%
    10:00 -7°C° 0 mm 5 mps 742 mmHg 81%
    11:00 -7°C° 0 mm 5 mps 742 mmHg 77%
    12:00 -7°C° 0 mm 5 mps 743 mmHg 72%
    13:00 -8°C° 0 mm 5 mps 743 mmHg 72%
    14:00 -8°C° 0 mm 5 mps 744 mmHg 72%
    15:00 -8°C° 0 mm 5 mps 744 mmHg 72%
    16:00 -8°C° 0 mm 4 mps 745 mmHg 72%
    17:00 -9°C° 0 mm 4 mps 746 mmHg 72%
    18:00 -8°C° 0 mm 3 mps 746 mmHg 72%
    19:00 -8°C° 0 mm 3 mps 747 mmHg 74%
    20:00 -9°C° 0 mm 3 mps 747 mmHg 77%
    21:00 -9°C° 0 mm 3 mps 748 mmHg 79%
    22:00 -9°C° 0 mm 3 mps 748 mmHg 79%
    23:00 -9°C° 0 mm 3 mps 749 mmHg 79%

    24 January, Friday

    Time Temperature Precipitation Wind Pressure Humidity
    00:00 -9°C° 0 mm 3 mps 749 mmHg 79%
    01:00 -9°C° 0 mm 3 mps 750 mmHg 81%
    02:00 -9°C° 0 mm 3 mps 750 mmHg 83%
    03:00 -11°C° 0 mm 4 mps 751 mmHg 85%
    04:00 -10°C° 0 mm 3 mps 751 mmHg 85%
    05:00 -10°C° 0 mm 3 mps 752 mmHg 85%
    06:00 -10°C° 0 mm 3 mps 752 mmHg 85%
    07:00 -10°C° 0 mm 3 mps 752 mmHg 85%
    08:00 -10°C° 0 mm 3 mps 752 mmHg 85%
    09:00 -10°C° 0 mm 3 mps 753 mmHg 85%
    10:00 -10°C° 0 mm 3 mps 753 mmHg 82%
    11:00 -9°C° 0 mm 3 mps 753 mmHg 80%
    12:00 -9°C° 0 mm 3 mps 753 mmHg 77%
    13:00 -8°C° 0 mm 3 mps 753 mmHg 77%
    14:00 -8°C° 0 mm 3 mps 752 mmHg 77%
    15:00 -8°C° 0 mm 3 mps 752 mmHg 77%
    16:00 -8°C° 0 mm 3 mps 752 mmHg 80%
    17:00 -10°C° 0 mm 4 mps 752 mmHg 83%
    18:00 -10°C° 0 mm 4 mps 752 mmHg 86%
    19:00 -9°C° 0.1 mm 4 mps 751 mmHg 88%
    20:00 -8°C° 0.1 mm 4 mps 751 mmHg 91%
    21:00 -8°C° 0.1 mm 4 mps 751 mmHg 94%
    22:00 -7°C° 0.3 mm 4 mps 751 mmHg 94%
    23:00 -7°C° 0.3 mm 4 mps 750 mmHg 95%
    Show more